[[{"header":{"parameterUnit":"m.s-1","parameterCategory":1,"la1":30.2991,"la2":30.254,"lo1":-89.0895,"lo2":-89.0444,"dy":0.0017,"dx":0.0017,"nx":28,"ny":28,"refTime":"2025-06-06T03:00:00:Z","depth":0,"parameterNumber":2,"parameterNumberName":"U-component_of_WINDS"},"data":[0,0,0,0,0,0,0,0,0,0,0,0,0,0,0,0,0,0,0,0,0,0,0,0,0,0,0,0,0,0,0,0,0,0,0,0,0,0,0,0,0,0,0,0,0,0,0,0,0,0,0,0,0,0,0,0,0,0,0.2079,0.208,0,0.2194,0.2195,0.2197,0.2267,0.2267,0.2268,0.2268,0.2389,0.2392,0.2394,0,0,0,0,0,0,0,0,0,0,0,0,0,0.1923,0.1925,0.2079,0.208,0.2082,0.2194,0.2195,0.2197,0.2267,0.2267,0.2268,0.2268,0.2388,0.2391,0.2395,0,0,0,0,0,0,0,0,0,0,0,0,0,0.2009,0.1926,0.2079,0.213,0.2136,0.2193,0.2195,0.2197,0.2267,0.2267,0.2268,0.2268,0.2387,0.2391,0.2395,0.2411,0,0,0.2408,0.241,0,0,0,0,0,0,0,0,0.2004,0.2015,0.2121,0.2127,0.2133,0.2217,0.2185,0.2269,0.2267,0.2217,0.2268,0.2269,0.2331,0.234,0.2361,0.2417,0.2422,0.2409,0.2411,0.2413,0.2415,0,0,0,0,0,0,0,0.1998,0.201,0.2125,0.2123,0.213,0.2148,0.2161,0.2201,0.227,0.2222,0.2227,0.224,0.2335,0.2356,0.2364,0.2424,0.2409,0.2413,0.2415,0.2417,0.2499,0.2498,0,0,0,0,0,0,0.1984,0.2005,0.2121,0.2128,0.2069,0.2151,0.2165,0.2189,0.227,0.2282,0.2239,0.2242,0.2349,0.2359,0.2369,0.2392,0.2413,0.2417,0.242,0.2499,0.2499,0.2498,0,0,0,0,0,0,0.198,0.1993,0.2116,0.2068,0.2085,0.2153,0.218,0.2191,0.2213,0.2283,0.2296,0.2248,0.235,0.2363,0.24,0.2397,0.2419,0.2423,0.25,0.2499,0.2498,0.2439,0,0,0,0,0,0,0.1975,0.1992,0.1998,0.2068,0.2087,0.2145,0.2179,0.2193,0.222,0.2226,0.2295,0.2307,0.2351,0.2393,0.2404,0.2404,0.2427,0.25,0.2499,0.2499,0.2442,0.2436,0.2432,0,0,0,0,0,0.1969,0.1977,0.1998,0.2011,0.2096,0.2144,0.2156,0.2205,0.2219,0.2227,0.2271,0.2305,0.2396,0.2396,0.2409,0.241,0.2501,0.25,0.2499,0.2444,0.2437,0.2432,0,0,0,0,0,0,0.1906,0.1987,0.2011,0.2042,0.2085,0.2156,0.2166,0.2197,0.2239,0.2242,0.2303,0.2318,0.2349,0.2384,0.2383,0.243,0.2452,0.2454,0.2406,0.24,0.2396,0.2386,0.243,0,0,0,0,0,0.1896,0.1927,0.1997,0.2017,0.2038,0.2098,0.2121,0.2155,0.2204,0.2223,0.227,0.2317,0.2356,0.238,0.242,0.2447,0.2463,0.2454,0.2449,0.2445,0.2446,0.2462,0.2458,0.2495,0.2495,0.2495,0,0,0.1875,0.1923,0.1939,0.2006,0.2044,0.2075,0.2113,0.2145,0.217,0.2228,0.2265,0.2302,0.2358,0.2389,0.2406,0.2419,0.2439,0.2444,0.244,0.2443,0.246,0.2457,0.2454,0.2494,0.2494,0.2495,0,0,0.1852,0.1892,0.1913,0.195,0.2007,0.2047,0.2052,0.2118,0.2144,0.2182,0.2226,0.2257,0.2323,0.236,0.2388,0.2379,0.2411,0.2391,0.2366,0.2381,0.2378,0.2376,0.2372,0.2369,0.2391,0.2391,0.2391,0,0.1819,0.1868,0.192,0.1949,0.1977,0.203,0.2052,0.2086,0.2153,0.2171,0.2185,0.2268,0.231,0.235,0.2348,0.2369,0.2377,0.2383,0.2374,0.2372,0.2371,0.2368,0.2366,0.2388,0.2388,0.2389,0.2389,0,0.1824,0.1857,0.1867,0.1929,0.1958,0.1983,0.204,0.2063,0.2095,0.2134,0.2172,0.2224,0.2274,0.2287,0.2319,0.2332,0.2339,0.2362,0.2386,0.2363,0.2361,0.2361,0.2384,0.2385,0.2386,0.2387,0,0,0.1764,0.1854,0.1857,0.1886,0.1952,0.1979,0.2007,0.2056,0.2074,0.2119,0.2143,0.2198,0.222,0.2251,0.2288,0.2301,0.229,0.2324,0.2326,0.2314,0.2307,0.2287,0.2285,0.2312,0.2312,0.2312,0.2302,0,0.1751,0.1802,0.185,0.1884,0.1915,0.1966,0.1991,0.2034,0.2071,0.2103,0.2145,0.2182,0.2209,0.2228,0.2243,0.2288,0.2289,0.2289,0.2335,0.2336,0.2318,0.2284,0.2265,0.2252,0.2301,0.2301,0.2301,0,0.1741,0.1782,0.1819,0.1882,0.1897,0.1918,0.1966,0.1996,0.2047,0.2073,0.2107,0.2146,0.2178,0.2198,0.2243,0.2242,0.2264,0.2289,0.229,0.2295,0.2316,0.2288,0.225,0.2247,0.2301,0.2301,0.2301,0,0.1693,0.1758,0.1788,0.1811,0.1885,0.1899,0.193,0.1981,0.2007,0.205,0.2067,0.2113,0.2138,0.2173,0.2223,0.2233,0.2262,0.2287,0.2285,0.2283,0.2288,0.2287,0.2252,0.2303,0.2303,0.2303,0.2303,0,0.1672,0.1692,0.1767,0.1785,0.181,0.1865,0.1888,0.1924,0.1969,0.1996,0.2044,0.2068,0.2133,0.2165,0.2205,0.2236,0.2247,0.2269,0.2279,0.2264,0.2261,0.2278,0.228,0.2303,0.2303,0.2303,0.2303,0,0.1621,0.1672,0.1708,0.1775,0.1793,0.1808,0.1866,0.1886,0.1925,0.1959,0.197,0.2032,0.2072,0.2126,0.2183,0.221,0.2235,0.2252,0.2217,0.2223,0.2217,0.2216,0.2191,0.219,0.2243,0.2242,0.2242,0,0.1604,0.162,0.1689,0.171,0.174,0.1773,0.18,0.1855,0.1881,0.1939,0.1952,0.1996,0.2034,0.2096,0.2147,0.219,0.2208,0.2196,0.2215,0.2199,0.2206,0.2204,0.2206,0.2191,0.219,0.2189,0.2189,0,0.1567,0.1591,0.1627,0.1672,0.1702,0.174,0.178,0.1795,0.1859,0.1885,0.1926,0.1955,0.2013,0.2056,0.2106,0.214,0.2175,0.2182,0.2184,0.2168,0.2147,0.2157,0.2203,0.2183,0.2183,0.2184,0.2184,0.2184,0.1532,0.1549,0.16,0.1638,0.1674,0.171,0.1732,0.1774,0.1809,0.186,0.1891,0.193,0.1981,0.2052,0.2084,0.2116,0.213,0.2132,0.2133,0.2132,0.2126,0.2143,0.2126,0.2126,0.2126,0.2126,0.2127,0,0.1497,0.1532,0.1567,0.1621,0.1651,0.1681,0.1727,0.175,0.1784,0.1828,0.1864,0.1911,0.1952,0.2006,0.2051,0.2066,0.2083,0.2076,0.2075,0.2082,0.2112,0.2106,0.2062,0.2062,0.2062,0.2062,0.2062,0.2062,0.1482,0.1512,0.1542,0.159,0.1626,0.1664,0.1688,0.1722,0.1757,0.1807,0.1841,0.1876,0.1923,0.1972,0.2012,0.2027,0.2041,0.2028,0.2048,0.2074,0.208,0.2086,0.208,0.2031,0.2031,0.2015,0.2015,0.2015]},{"header":{"parameterUnit":"m.s-1","parameterCategory":1,"la1":30.2991,"la2":30.254,"lo1":-89.0895,"lo2":-89.0444,"dy":0.0017,"dx":0.0017,"nx":28,"ny":28,"refTime":"2025-06-06T03:00:00:Z","depth":0,"parameterNumber":3,"parameterNumberName":"V-component_of_WINDS"},"data":[0,0,0,0,0,0,0,0,0,0,0,0,0,0,0,0,0,0,0,0,0,0,0,0,0,0,0,0,0,0,0,0,0,0,0,0,0,0,0,0,0,0,0,0,0,0,0,0,0,0,0,0,0,0,0,0,0,0,4.6646,4.6646,0,4.661,4.661,4.6609,4.6593,4.6593,4.6593,4.6593,4.6551,4.6549,4.6548,0,0,0,0,0,0,0,0,0,0,0,0,0,4.6697,4.6696,4.6646,4.6646,4.6645,4.661,4.661,4.6609,4.6593,4.6593,4.6593,4.6593,4.6551,4.655,4.6548,0,0,0,0,0,0,0,0,0,0,0,0,0,4.6669,4.6696,4.6646,4.6633,4.6631,4.661,4.661,4.6609,4.6593,4.6593,4.6593,4.6593,4.6551,4.655,4.6548,4.6536,0,0,4.6543,4.6542,0,0,0,0,0,0,0,0,4.6671,4.6667,4.6635,4.6634,4.6632,4.6606,4.6612,4.6584,4.6593,4.6607,4.6593,4.6593,4.6569,4.6565,4.6558,4.6534,4.6532,4.6542,4.6541,4.6541,4.654,0,0,0,0,0,0,0,4.6673,4.6669,4.6632,4.6635,4.6633,4.6628,4.6624,4.6607,4.6588,4.6606,4.6605,4.6601,4.6568,4.656,4.6557,4.6531,4.6543,4.6541,4.654,4.6539,4.6496,4.6496,0,0,0,0,0,0,4.6677,4.667,4.6633,4.6631,4.6652,4.6627,4.6622,4.6614,4.6588,4.6584,4.6601,4.66,4.6563,4.6559,4.6556,4.654,4.6541,4.6539,4.6538,4.6496,4.6496,4.6496,0,0,0,0,0,0,4.6679,4.6674,4.6634,4.665,4.6645,4.6626,4.6617,4.6613,4.6606,4.6584,4.658,4.6597,4.6563,4.6558,4.6541,4.6539,4.6538,4.6537,4.6496,4.6496,4.6496,4.6509,0,0,0,0,0,0,4.668,4.6675,4.6671,4.665,4.6644,4.6622,4.6617,4.6613,4.6604,4.6602,4.6579,4.6576,4.6563,4.6544,4.654,4.6536,4.6535,4.6496,4.6496,4.6496,4.6509,4.6509,4.651,0,0,0,0,0,4.6682,4.6674,4.6671,4.6666,4.6639,4.6622,4.6618,4.6605,4.6603,4.6599,4.6585,4.6576,4.654,4.6543,4.6537,4.6533,4.6496,4.6496,4.6496,4.6509,4.6509,4.651,0,0,0,0,0,0,4.6693,4.6671,4.6667,4.6653,4.664,4.6619,4.6612,4.6606,4.6591,4.659,4.6573,4.6568,4.6553,4.6541,4.6545,4.6521,4.6517,4.6516,4.6529,4.6529,4.653,4.6533,4.6534,0,0,0,0,0,4.6694,4.6683,4.6665,4.6654,4.6648,4.6631,4.6623,4.6615,4.6599,4.6593,4.6578,4.6562,4.6547,4.6538,4.6523,4.6507,4.6502,4.6502,4.6503,4.6503,4.6502,4.6494,4.6494,4.6495,4.6495,4.6495,0,0,4.6695,4.6682,4.6676,4.6656,4.6644,4.6633,4.6627,4.6614,4.6605,4.659,4.6575,4.6563,4.6544,4.6529,4.6521,4.6519,4.6501,4.6503,4.6504,4.6502,4.6494,4.6494,4.6494,4.6495,4.6495,4.6495,0,0,4.6692,4.6681,4.6672,4.6661,4.6645,4.6634,4.6632,4.6613,4.6606,4.659,4.6579,4.6568,4.6542,4.653,4.652,4.6514,4.6506,4.651,4.6512,4.6505,4.6505,4.6504,4.6503,4.6502,4.6509,4.6509,4.6509,0,4.6695,4.6678,4.6667,4.6656,4.6647,4.6636,4.6626,4.6616,4.6595,4.6588,4.6587,4.6556,4.6542,4.6524,4.6523,4.6515,4.6512,4.6512,4.6506,4.6506,4.6505,4.6503,4.6503,4.6509,4.6509,4.6509,4.6509,0,4.6683,4.6672,4.6666,4.6649,4.6639,4.6629,4.6615,4.6607,4.6599,4.6589,4.6573,4.6557,4.6539,4.6534,4.6526,4.6515,4.6514,4.651,4.6506,4.6506,4.6504,4.6503,4.651,4.651,4.651,4.651,0,0,4.6684,4.6662,4.666,4.6653,4.6635,4.6625,4.6614,4.6599,4.6593,4.6579,4.6569,4.6549,4.6545,4.6534,4.6524,4.6517,4.6515,4.6513,4.6513,4.6514,4.6503,4.6507,4.6506,4.651,4.6509,4.6509,4.6505,0,4.6678,4.666,4.665,4.6635,4.6625,4.6615,4.6606,4.6593,4.6584,4.6572,4.6561,4.6547,4.6543,4.6537,4.653,4.6517,4.6512,4.6517,4.6499,4.6499,4.6504,4.6505,4.6509,4.6505,4.6504,4.6503,4.6503,0,4.6669,4.6658,4.6643,4.6628,4.6623,4.6615,4.6601,4.6591,4.6576,4.657,4.6559,4.655,4.6537,4.6535,4.6517,4.6521,4.6513,4.6506,4.6505,4.6503,4.6501,4.6502,4.6503,4.6503,4.6502,4.6502,4.6502,0,4.6672,4.6653,4.6642,4.6635,4.6617,4.6612,4.6604,4.659,4.6582,4.6569,4.6564,4.6549,4.6541,4.6529,4.6516,4.6516,4.65,4.6497,4.6494,4.6494,4.649,4.649,4.649,4.6486,4.6486,4.6486,4.6486,0,4.6666,4.6657,4.6643,4.6636,4.6626,4.6615,4.6604,4.6595,4.6584,4.6574,4.6564,4.6555,4.6539,4.6528,4.6517,4.6505,4.6501,4.6495,4.6492,4.6495,4.6496,4.649,4.649,4.6485,4.6485,4.6485,4.6485,0,4.6667,4.6657,4.6645,4.663,4.6626,4.6619,4.6605,4.6598,4.6589,4.6577,4.6573,4.6558,4.6545,4.6531,4.6512,4.6506,4.6493,4.6489,4.6499,4.6497,4.6495,4.6496,4.649,4.6489,4.6486,4.6486,4.6486,0,4.6664,4.6658,4.6643,4.6637,4.663,4.662,4.6612,4.6601,4.6593,4.6578,4.6572,4.6559,4.6547,4.6526,4.6513,4.6499,4.6495,4.6494,4.6492,4.6496,4.6495,4.6495,4.6495,4.6494,4.6494,4.6494,4.6494,0,4.666,4.6656,4.6647,4.6636,4.6628,4.6618,4.6608,4.6603,4.659,4.6582,4.6569,4.6561,4.6543,4.653,4.6514,4.6505,4.6497,4.6495,4.6494,4.6497,4.6503,4.65,4.65,4.6495,4.6495,4.6495,4.6495,4.6495,4.6659,4.6653,4.6643,4.6632,4.6624,4.6616,4.6609,4.6599,4.6589,4.6576,4.6569,4.6557,4.6544,4.6523,4.6514,4.6503,4.6501,4.6499,4.6498,4.6498,4.6499,4.6505,4.65,4.65,4.65,4.65,4.65,0,4.6655,4.6648,4.6639,4.6627,4.6619,4.6615,4.6604,4.6597,4.6587,4.6576,4.6566,4.6552,4.654,4.6526,4.6513,4.6507,4.6503,4.6504,4.6504,4.6502,4.6501,4.6504,4.6507,4.6507,4.6507,4.6507,4.6507,4.6507,4.6652,4.6642,4.6637,4.6623,4.6616,4.6605,4.66,4.6591,4.6583,4.6569,4.6559,4.6551,4.654,4.6526,4.6514,4.651,4.6506,4.6507,4.6503,4.6502,4.6502,4.6501,4.6504,4.6507,4.6507,4.6504,4.6504,4.6504]}]]